Location: Croissy-Beaubourg
(48.8283°N, 2.6696°E)
Time: 04:26:21
(UTC+00:00)

Cosmos 2082 - Pass Details

Date: 20 August 2022
Orbit: 832 x 856 km, 71.0° (Epoch: 29 September)

Event Time Altitude Azimuth Distance (km) Brightness Sun altitude
Rises 19:32:40 0° 255° (WSW) 3,376 7.7 -6.4°
Reaches altitude 10° 19:35:43 10° 271° (W) 2,447 7.3 -6.9°
Maximum altitude 19:39:53 21° 320° (NW) 1,807 6.5 -7.5°
Drops below altitude 10° 19:44:05 10° 8° (N) 2,465 6.4 -8.1°
Sets 19:47:11 0° 24° (NNE) 3,407 6.9 -8.5°
